Location: *
(53.9002°N, 27.5624°E)
Time: 17:55:13
(UTC+00:00)

Cosmos 2221 - Pass Details

Date: 12 November 2019
Orbit: 593 x 615 km, 82.5° (Epoch: 14 December)

Event Time Altitude Azimuth Distance (km) Brightness Sun altitude
Rises 16:08:36 0° 196° (SSW) 2,841 6.3 -16.4°
Reaches altitude 10° 16:10:48 10° 198° (SSW) 1,946 5.4 -16.7°
Maximum altitude 16:15:05 70° 282° (WNW) 649 2.8 -17.3°
Drops below altitude 10° 16:19:27 10° 8° (N) 1,976 5.0 -18.0°
Sets 16:21:43 0° 11° (N) 2,889 5.8 -18.3°
